Find Starlink 5759

NORAD ID: 55592 Int'l Des: 2023-020 Owner: SPXS Country: US Constellation: starlink operational
LEOCIRCULAR

Live Position

Loading 3D Globe...

About Starlink 5759

Description loading...

Upcoming Passes

Passes for default location (London). Set your location on the main map for personalized predictions.

Altitude History

Loading altitude history...

Two-Line Element Set

1 55592U 23020Z 26106.46505591 .00001126 00000-0 50423-4 0 9991
2 55592 43.0021 151.5544 0001483 271.7486 88.3196 15.27580125174692
Epoch: Apr 16, 2026 • Age: 23 hours

Current Status

Altitude 484.1 km
Velocity 7.62 km/s
Sub-Earth Point -7.63°S, 20.6°W
Launch Date Feb 12, 2023
Age 3.1 years
Type internet

Technical Details

Classification Payload
Mass 305.00 kg
Dry Mass 290.00 kg
Total Mass 305.00 kg
Length 0.20 m
Diameter 2.80 m
Span 9.00 m
Shape Box + pan
Manufacturer SPXS
Bus Type Starlink
Phase Status In Orbit
Owner/State SPXS/US

Most Searched